Regional Weather Roundup
Issued by NWS Burlington, VT

Home | Current Version | Previous Version | Text Only | Print | Product List | Glossary On
Versions: 1 2 3 4 5 6 7 8 9 10 11 12 13 14 15 16 17 18 19 20 21 22 23 24 25 26 27 28 29 30 31 32 33 34 35 36 37 38 39 40 41 42 43 44 45 46 47 48 49 50
000
ASUS41 KBTV 241130
RWRBTV
VERMONT REGIONAL WEATHER ROUNDUP
NATIONAL WEATHER SERVICE BURLINGTON VT
700 AM EDT SUN MAY 24 2015

NOTE: "FAIR" INDICATES FEW OR NO CLOUDS BELOW 12,000 FEET WITH NO
SIGNIFICANT WEATHER AND/OR OBSTRUCTIONS TO VISIBILITY.

* THESE REPORTS ARE NOT UNDER NWS QUALITY CONTROL AND/OR DO NOT
  REPORT WEATHER SUCH AS PRECIPITATION AND FOG.

VTZ001>019-241200-
_____VERMONT_____


CITY           SKY/WX    TMP DP  RH WIND       PRES   REMARKS
BURLINGTON     PTSUNNY   56  32  40 S10       30.18R
MONTPELIER     MOSUNNY   57  30  35 W3        30.22R
MORRISVILLE    CLOUDY    60  34  37 S7        30.18R
ST. JOHNSBURY*   N/A     44  35  70 MISG      30.17S
LYNDONVILLE*     N/A     46  30  54 CALM      30.19S
MIDDLEBURY*      N/A     56  33  41 S6        30.22S
RUTLAND*       SUNNY     57  28  33 CALM      30.24S
SPRINGFIELD    SUNNY     41  36  82 CALM      30.24F
HIGHGATE*        N/A     57  33  39 S8        30.15S
NEWPORT*         N/A     56  35  46 SW13G18   30.15S
BENNINGTON     MOSUNNY   47  41  80 CALM      30.28F
SUTTON*          N/A     43 N/A N/A MISG        N/A
GALLUP MILLS*    N/A     37 N/A N/A MISG        N/A
MT. MANSFIELD*   N/A     43 N/A N/A CALM        N/A

_____LAKE CHAMPLAIN_____


CITY           SKY/WX    TMP DP  RH WIND       PRES   REMARKS
BURTON ISLAND*   N/A     57  41  54 S9          N/A
COLCHESTER RF*   N/A     54  36  50 S15         N/A
DIAMOND ISL*     N/A     55  36  47 S5          N/A

$$

NYZ007-026>031-035-052-083-241200-
_____NORTHERN NEW YORK_____


CITY           SKY/WX    TMP DP  RH WIND       PRES   REMARKS
PLATTSBURGH    MOSUNNY   58  32  37 VRB5      30.16R
SARANAC LAKE   SUNNY     52  31  44 SW9       30.20R
MASSENA        MOSUNNY   54  33  45 SW14      30.17S
OGDENSBURG*    SUNNY     54  37  54 SW8       30.19S
POTSDAM*       SUNNY    -17 -33  43 SW12G20   30.19S WCI -38
STARK FALLS*     N/A     55 N/A N/A SW9         N/A
WATERTOWN      SUNNY     55  31  39 SW8       30.25R
FT DRUM        SUNNY     58  28  31 W10G18    30.23R
ALBANY         MOSUNNY   50  36  58 S5        30.30S
GLENS FALLS    MOSUNNY   50  37  61 S5        30.27R

$$
NHZ002-005-011-241200-
_____NEW HAMPSHIRE_____


CITY           SKY/WX    TMP DP  RH WIND       PRES   REMARKS
LEBANON        SUNNY     44  37  76 CALM      30.21S
KEENE          SUNNY     45  36  70 CALM      30.28F
MT WASHINGTON  PTSUNNY   32  25  74 NW63G75     N/A
PLYMOUTH         N/A     39  39  99 CALM      30.19F
WHITEFIELD     MOSUNNY   51  35  54 NW5       30.18R

$$

_____REGIONAL QUEBEC LOCATIONS_____


CITY           SKY/WX    TMP DP  RH WIND       PRES   REMARKS
MONTREAL       PTSUNNY   55  36  47 SW12      30.12R
QUEBEC CITY    MOSUNNY   52  37  58 SW13      30.01R
SHERBROOKE     SUNNY     52  39  62 S5        30.10R

_____REGIONAL ONTARIO LOCATIONS_____


CITY           SKY/WX    TMP DP  RH WIND       PRES   REMARKS
OTTAWA         PTSUNNY   52  39  62 S8        30.14R

______KEY______
VSB  - VISIBILITY IN MILES
WCI  - WIND CHILL INDEX
HX   - HEAT INDEX
$$
NNNN


USA.gov is the U.S. government's official web portal to all federal, state and local government web resources and services.